Location: ??
(35.5052°N, 139.7262°E)
Time: 03:35:11
(UTC+00:00)

CZ-4 R/B - Pass Details

Date: 20 June 2021
Orbit: 681 x 752 km, 98.5° (Epoch: 26 July)

Event Time Altitude Azimuth Distance (km) Brightness Sun altitude
Rises 15:40:21 0° 11° (N) 3,055 8.3 -29.5°
Reaches altitude 10° 15:42:35 10° 11° (N) 2,141 7.2 -29.4°
Enters shadow 15:46:14 54° 2° (N) 837 4.4 -29.2°
